Regional Weather Roundup
Issued by NWS Goodland, KS

Home | Current Version | Previous Version | Text Only | Print | Product List | Glossary Off
Versions: 1 2 3 4 5 6 7 8 9 10 11 12 13 14 15 16 17 18 19 20 21 22 23 24 25 26 27 28 29 30 31 32 33 34 35 36 37 38 39 40 41 42 43 44 45 46 47 48 49 50

000
ASUS43 KGLD 260159
RWRGLD

GOODLAND FORECAST AREA HOURLY WEATHER ROUNDUP
NATIONAL WEATHER SERVICE GOODLAND KS
800 PM MDT SAT MAR 25 2017

...OFFICIAL OBSERVATIONS...

CITY           SKY/WX    TMP DP  RH WIND       PRES   REMARKS
GOODLAND KS    CLOUDY    45  36  70 SE7       29.88R
HILL CITY KS   CLOUDY    41  38  89 E3        29.92S
IMPERIAL NEB   CLOUDY    47  31  53 SE3       29.87F
MCCOOK NEB     CLOUDY    45  41  86 E10       29.90S
AKRON CO       CLOUDY    49  29  46 SE10      29.86S
BURLINGTON CO  CLOUDY    48  35  60 SE7       29.88S
LIMON CO       CLOUDY    43  35  73 SE6       29.87S
$$

...UNOFFICIAL OBSERVATIONS...

CITY           SKY/WX    TMP DP  RH WIND       PRES   REMARKS
LENORA KS        N/A     42  32  68 CALM        N/A
NORTON KS      CLEAR     39  34  81 NE3       29.91S
SHARON SPRINGS   N/A     49  33  55 CALM        N/A
TRENTON NEB      N/A     46  32  58 SE8         N/A
YUMA CO        FAIR      45  34  65 SE6       29.87R
$$




USA.gov is the U.S. government's official web portal to all federal, state and local government web resources and services.